Location: Trois-Rivi�res
(46.3500°N, 72.5500°W)
Time: 10:47:31
(UTC-04:00)

Vanguard 2 Rocket - All Passes

Search period start: 19 October 2017 00:00
Search period end: 29 October 2017 00:00
Orbit: 555 x 3327 km, 32.9° (Epoch: 18 October)

Date Brightness Start Highest point End Pass type
(mag) Time Alt. Az. Time Alt. Az. Time Alt. Az.
19 Oct - 12:38:39 10° SSW 12:42:52 19° SSE 12:48:38 10° ESE daylight
19 Oct - 14:48:27 10° SW 14:55:13 36° S 15:06:18 10° ESE daylight
19 Oct - 17:00:21 10° WSW 17:09:10 35° S 17:22:55 10° SE daylight
19 Oct - 19:14:52 10° WSW 19:24:01 21° SSW 19:35:50 10° SSE visible
20 Oct - 11:42:34 10° SSE 11:44:10 11° SE 11:45:56 10° SE daylight
20 Oct - 13:50:14 10° SW 13:55:52 30° SSE 14:04:42 10° ESE daylight
20 Oct - 16:01:29 10° WSW 16:09:09 36° S 16:21:32 10° SE daylight
20 Oct - 18:14:46 10° WSW 18:23:38 25° SSW 18:36:01 10° SSE visible
21 Oct - 12:52:21 10° SSW 12:56:49 23° SSE 13:03:16 10° ESE daylight
21 Oct - 15:02:53 10° WSW 15:09:27 34° S 15:20:05 10° ESE daylight
21 Oct - 17:15:17 10° WSW 17:23:25 28° SSW 17:35:31 10° SSE daylight
21 Oct - 19:32:10 10° WSW 19:38:06 14° SSW 19:45:01 10° S visible
22 Oct - 11:55:01 10° S 11:58:01 15° SSE 12:01:47 10° ESE daylight
22 Oct - 14:04:32 10° SW 14:10:04 31° S 14:18:44 10° ESE daylight
22 Oct - 16:16:15 10° WSW 16:23:28 30° S 16:34:37 10° SE daylight
22 Oct - 18:30:50 10° WSW 18:37:50 17° SSW 18:46:49 10° S visible
23 Oct - 13:06:25 10° SW 13:10:56 25° SSE 13:17:35 10° ESE daylight
23 Oct - 15:17:32 10° WSW 15:23:46 30° S 15:33:34 10° SE daylight
23 Oct - 17:30:46 10° WSW 17:37:43 20° SSW 17:47:16 10° SSE daylight
24 Oct - 12:08:36 10° SSW 12:12:03 19° SSE 12:16:36 10° ESE daylight
24 Oct - 14:19:02 10° WSW 14:24:21 28° S 14:32:32 10° SE daylight
24 Oct - 16:31:23 10° WSW 16:37:48 23° SSW 16:47:05 10° SSE daylight
25 Oct - 11:11:30 10° S 11:13:19 12° SSE 11:15:21 10° SE daylight
25 Oct - 13:20:45 10° SW 13:25:12 25° S 13:31:39 10° ESE daylight
25 Oct - 15:32:26 10° WSW 15:38:09 24° S 15:46:34 10° SE daylight
25 Oct - 17:47:43 10° SW 17:52:03 13° SSW 17:57:13 10° S daylight
26 Oct - 12:22:40 10° SW 12:26:14 20° SSE 12:30:59 10° ESE daylight
26 Oct - 14:33:47 10° WSW 14:38:43 24° S 14:45:58 10° SE daylight
26 Oct - 16:47:22 10° SW 16:52:12 15° SSW 16:58:24 10° S daylight
27 Oct - 11:24:53 10° SSW 11:27:25 15° SSE 11:30:26 10° SE daylight
27 Oct - 13:35:20 10° SW 13:39:31 23° S 13:45:27 10° SE daylight
27 Oct - 15:47:54 10° SW 15:52:33 17° SSW 15:58:46 10° SSE daylight
28 Oct - 12:37:03 10° SW 12:40:31 20° S 12:45:05 10° SE daylight
28 Oct - 14:48:56 10° SW 14:53:08 18° S 14:58:49 10° SSE daylight
